{"data":{"norad_id":38711,"intl_designator":"2012-039E","name":"MKA-PN 1","alt_names":[],"object_type":"PAYLOAD","status":"ACTIVE","operator":null,"country":"CIS","launch_date":"2012-07-22","launch_site_code":"TYMSC","launch_vehicle":null,"mission":null,"orbit_class":"UNKNOWN","rcs_meters":1.0842,"size_class":null,"mass_kg":null,"dimensions":null,"purposes":[],"wikipedia_slug":null,"has_3d_model":false,"image_url":null,"decayed_at":null,"tle_current":{"epoch":"2026-05-25T00:34:01.136064Z","epoch_age_seconds":69185,"freshness":"FRESH","line1":"1 38711U 12039E   26145.02362426  .00000117  00000+0  69377-4 0  9992","line2":"2 38711  98.9691 261.5380 0010643 231.6727 128.3496 14.25418664719541","mean_motion":14.25418664,"eccentricity":0.0010643,"inclination_deg":98.9691,"raan_deg":261.538,"arg_perigee_deg":231.6727,"mean_anomaly_deg":128.3496,"bstar":6.9377e-5,"rev_number":71954,"period_min":101.02295110681,"perigee_km":799.43814854694,"apogee_km":814.73261290655,"semimajor_km":7185.2223807267,"source":"CELESTRAK","updated_at":"2026-05-25T13:37:55.303708Z"}}}